Home   Weather   Kalgoorlie   Past weeks
Flag for Australia

Past Weather in Kalgoorlie, Western Australia, Australia — Yesterday and Last 2 Weeks

Now
70 °F

Clear.


Feels Like: 70 °F
Forecast: 88 / 62 °F
Wind: 9 mph from Northeast

Location: Kalgoorlie Boulder Amo

Current Time: Apr 9, 2020 at 1:50:53 am

Latest Report: Apr 9, 2020 at 1:00 am


Visibility: N/A

Pressure: 30.07 "Hg

Humidity: 43%

Dew Point: 46 °F

Location of KalgoorlieLocation

Past Weather in Kalgoorlie — Graph

°F

Kalgoorlie Temperature Yesterday

Maximum temperature yesterday: 84 °F (at 2:30 pm)
Minimum temperature yesterday: 63 °F (at 5:00 am)
Average temperature yesterday: 74 °F

High & Low Weather Summary for the Past Weeks

 TemperatureHumidityPressure
High95 °F (Mar 27, 3:30 pm)82% (Apr 1, 3:00 am)30.24 "Hg (Apr 1, 3:00 am)
Low46 °F (Apr 4, 5:00 am)16% (Mar 27, 3:30 pm)29.74 "Hg (Apr 2, 1:00 pm)
Average71 °F44%30.02 "Hg
* Reported Mar 25 12:00 am — Apr 9 12:30 am, Kalgoorlie. Weather by CustomWeather, © 2020

Note: Actual official high and low records may vary slightly from our data, if they occured in-between our weather recording intervals... More about our weather records

Kalgoorlie Weather History for the Previous 24 Hours

Scroll right to see more
 ConditionsComfort  
Time TempWeatherWind HumidityBarometerVisibility
12:30 am
Thu, Apr 9
72 °FClear.9 mph41%30.07 "HgN/A
12:00 am70 °FClear.7 mph43%30.07 "HgN/A
11:30 pm
Wed, Apr 8
72 °FClear.8 mph41%30.07 "HgN/A
11:00 pm73 °FClear.9 mph38%30.07 "HgN/A
10:30 pm73 °FClear.9 mph38%30.09 "HgN/A
9:30 pm75 °FClear.12 mph36%30.09 "HgN/A
9:00 pm77 °FClear.13 mph32%30.07 "HgN/A
8:30 pm77 °FClear.10 mph32%30.07 "HgN/A
8:00 pm77 °FClear.9 mph32%30.07 "HgN/A
7:30 pm77 °FClear.7 mph32%30.07 "HgN/A
7:00 pm77 °FClear.7 mph32%30.04 "HgN/A
6:30 pm79 °FClear.6 mph30%30.04 "HgN/A
6:00 pm79 °FClear.6 mph28%30.04 "HgN/A
5:30 pm81 °FSunny.8 mph28%30.01 "HgN/A
5:00 pm82 °FSunny.9 mph26%30.01 "HgN/A
4:30 pm82 °FSunny.8 mph25%30.01 "HgN/A
4:00 pm82 °FSunny.7 mph26%30.01 "HgN/A
3:30 pm84 °FSunny.8 mph25%30.01 "HgN/A
3:00 pm84 °FSunny.9 mph23%30.01 "HgN/A
2:30 pm84 °FSunny.9 mph23%30.01 "HgN/A
2:00 pm82 °FSunny.8 mph25%30.01 "HgN/A
1:30 pm82 °FSunny.8 mph25%30.01 "HgN/A
1:00 pm82 °FSunny.10 mph26%30.04 "HgN/A
12:30 pm81 °FSunny.13 mph26%30.04 "HgN/A
12:00 pm81 °FSunny.13 mph30%30.07 "HgN/A
11:30 am81 °FSunny.10 mph30%30.07 "HgN/A
11:00 am77 °FSunny.13 mph34%30.09 "HgN/A
10:30 am77 °FSunny.12 mph34%30.09 "HgN/A
10:00 am73 °FSunny.14 mph38%30.09 "HgN/A
9:30 am73 °FSunny.13 mph38%30.12 "HgN/A
9:00 am70 °FSunny.13 mph46%30.12 "HgN/A
8:00 am66 °FSunny.10 mph49%30.09 "HgN/A
7:30 am64 °FSunny.10 mph52%30.09 "HgN/A
7:00 am63 °FSunny.10 mph56%30.09 "HgN/A
6:30 am63 °FSunny.9 mph56%30.09 "HgN/A
6:00 am63 °FClear.10 mph56%30.07 "HgN/A
5:30 am63 °FClear.9 mph56%30.07 "HgN/A
5:00 am63 °FClear.10 mph52%30.07 "HgN/A
4:30 am64 °FClear.10 mph49%30.07 "HgN/A
4:00 am64 °FClear.12 mph49%30.07 "HgN/A
3:30 am64 °FClear.10 mph49%30.07 "HgN/A
3:00 am66 °FClear.10 mph46%30.07 "HgN/A
2:30 am66 °FClear.12 mph46%30.04 "HgN/A
2:00 am68 °FClear.13 mph43%30.04 "HgN/A
1:30 am68 °FClear.13 mph43%30.04 "HgN/A
1:00 am68 °FClear.14 mph40%30.04 "HgN/A
Weather by CustomWeather, © 2020

See weather overview

Advertising